Вернуться в каталог

COSMOS 2407

АктивенНавигацияPO
NORAD 28380·PAYLOAD·🇷🇺 Russia

Запущен Jul 22, 2004 с Plesetsk Cosmodrome

Loading…

Ближайшие Пролёты (ближайшие 24 часа)

TLE

СвежийSource: Space-Track

Эпоха: Sep 14, 2026, 19:05 UTC

1 28380U 04028A   26257.79573741  .00000062  00000-0  47556-4 0  9999
2 28380  82.9648   8.4566 0039192   3.8293 160.6213 13.76340242112205

Отслеживайте COSMOS 2407 в реальном времени с AllMySat

Download on the App Store